Flag for Turkey Weather past 2 weeks in Mersin, Turkey

Now
66 °F

Clear.


Feels Like: 66 °F
Forecast: 62 / 85 °F
Wind: No wind

Location: Adana / Sakirpasa

Current Time: Sep 21, 2014 at 3:05:02 AM

Latest Report: Sep 21, 2014 at 2:20 AM


Visibility: 10 mi

Pressure: 29.83 "Hg

Humidity: 83%

Dew point: 61 °F

Location of MersinLocation

Historic Weather in Mersin — Graph

°F

Mersin temperature yesterday

Maximum temperature yesterday: 88 °F (at 2:20 PM)
Minimum temperature yesterday: 63 °F (at 6:20 AM)
Average temperature yesterday: 74 °F

Past Weeks' High & Low Weather Summary

 TemperatureHumidityPressure
High93 °F (Sep 13, 1:50 PM)94% (Sep 18, 4:50 PM)29.95 "Hg (Sep 18, 4:50 PM)
Low63 °F (Sep 20, 6:20 AM)29% (Sep 20, 12:50 PM)29.65 "Hg (Sep 6, 2:20 AM)
Average80 °F66%29.81 "Hg
* Reported Sep 6 1:20 AM — Sep 21 1:20 AM, Mersin, Weather by CustomWeather, © 2014

Note: Actual official high and low records may vary slightly from our data, if they occured in-between our weather recording intervals... More about our weather records

Advertising

Mersin weather history for previous 24 hours

 ConditionsComfort  
Time TempWeatherWind HumidityBarometerVisibility
1:20 AM
Sep 21
70 °FPassing clouds.5 mph78%29.86 "HgN/A
12:50 AM70 °FPassing clouds.No wind78%29.86 "HgN/A
12:20 AM72 °FPassing clouds.5 mph73%29.86 "HgN/A
11:20 PM
Sep 20
72 °FPassing clouds.6 mph73%29.86 "HgN/A
10:50 PM73 °FPassing clouds.3 mph69%29.86 "HgN/A
10:20 PM72 °FPassing clouds.3 mph73%29.86 "HgN/A
9:50 PM72 °FPassing clouds.3 mph73%29.86 "HgN/A
9:20 PM72 °FPassing clouds.No wind73%29.86 "HgN/A
8:50 PM73 °FPassing clouds.3 mph69%29.86 "HgN/A
4:20 PM84 °FPassing clouds.14 mph37%29.83 "HgN/A
3:50 PM86 °FPassing clouds.13 mph33%29.83 "HgN/A
3:20 PM86 °FPassing clouds.12 mph33%29.83 "HgN/A
2:50 PM88 °FPassing clouds.8 mph29%29.83 "HgN/A
2:20 PM88 °FPassing clouds.6 mph29%29.86 "HgN/A
1:50 PM86 °FPassing clouds.5 mph31%29.86 "HgN/A
1:20 PM86 °FPassing clouds.6 mph29%29.86 "HgN/A
12:50 PM86 °FPassing clouds.5 mph29%29.89 "HgN/A
12:20 PM84 °FPassing clouds.5 mph31%29.89 "HgN/A
11:50 AM82 °FPassing clouds.6 mph32%29.89 "HgN/A
11:20 AM82 °FPassing clouds.5 mph32%29.92 "HgN/A
10:50 AM81 °FPassing clouds.5 mph37%29.92 "HgN/A
10:20 AM81 °FPassing clouds.1 mph37%29.92 "HgN/A
9:50 AM79 °FPassing clouds.3 mph45%29.92 "HgN/A
9:20 AM79 °FPassing clouds.2 mph45%29.92 "HgN/A
8:50 AM75 °FPassing clouds.1 mph57%29.92 "HgN/A
8:20 AM70 °FPassing clouds.3 mph78%29.92 "HgN/A
7:50 AM70 °FPassing clouds.1 mph78%29.92 "HgN/A
7:20 AM66 °FPassing clouds.5 mph88%29.92 "HgN/A
6:50 AM63 °FPassing clouds.3 mph94%29.92 "HgN/A
6:20 AM63 °FPassing clouds.2 mph94%29.89 "HgN/A
5:50 AM64 °FPassing clouds.No wind88%29.89 "HgN/A
5:20 AM64 °FPassing clouds.3 mph88%29.89 "HgN/A
4:50 AM64 °FPassing clouds.No wind88%29.89 "HgN/A
3:50 AM64 °FPassing clouds.1 mph88%29.89 "HgN/A
3:20 AM66 °FPassing clouds.No wind83%29.89 "HgN/A
Weather by CustomWeather, © 2014

See weather overviewHow to use our weather pages